Other Surface Observations
Issued by NWS Charleston, SC

Home | Current Version | Previous Version | Text Only | Print | Product List | Glossary On
Versions: 1 2 3 4 5 6 7 8 9 10 11 12 13 14 15 16 17 18 19 20 21 22 23 24 25 26 27 28 29 30 31 32 33 34 35 36 37 38 39 40 41 42 43 44 45 46 47 48 49 50
000
SXUS52 KCHS 282026
OSOCHS

MARINE OBSERVATIONS
NATIONAL WEATHER SERVICE CHARLESTON SC
300 PM EST WED JAN 28 2015

...DOWNTOWN CHARLESTON AND HARBOR...

CITY           SKY/WX    TMP DP  RH WIND       PRES   REMARKS
WATERFRONT PRK   N/A     46 N/A N/A N8G14       N/A
FORT JOHNSON   NOT AVBL

...LAKE MOULTRIE...

CITY           SKY/WX    TMP DP  RH WIND       PRES   REMARKS
PINOPOLIS      NOT AVBL

...LAKE AND SUPPLEMENTAL COASTAL OBSERVATIONS...

STATION/POSITION TIME  TEMP    WIND        PRES    WAVE   SWELL
                       AIR SEA DIR/SP/G            HT/PER HT/PER/DIR
                 (UTC) (F)     (DEG/KT/KT) (MB)    (FT/S) (FT/S/D)
FORT PULASKI     2000   49 52  350/  9/ 12 1024.2S
SAPELO ISLAND    2000   54     330/  5     1024.0S
UPR LAKE MARION  NOT AVBL
WINYAH BAY       1900   44     330/  8     1022.0S
LAKE MURRAY      2000   48      CALM  /  4 1023.4S
ACE BASIN NERRS  1900   47     340/  4     1024.0


...C-MAN AND BUOY OBSERVATIONS...

STATION/POSITION TIME  TEMP    WIND        PRES    WAVE   SWELL
                       AIR SEA DIR/SP/G            HT/PER HT/PER/DIR
                 (UTC) (F)     (DEG/KT/KT) (MB)    (FT/S) (FT/S/D)
BUOY 41004       1950   43 66  360/ 14/ 19 1022.8R   5/ 6   2/14
BUOY 41008       1950   45 54   10/ 10/ 12 1024.0S   4/ 6   3/ 60/ 6
FOLLY BEACH CMAN 2000   46     340/  5/  8 1024.4R
CAPERS NS BUOY   1900   44      30/  8/ 10   N/A
FRIPP NS BUOY    1900   45      10/ 14/ 16 1023.1F
5E ST. MARYS GA  1922      57                N/A     4/13   2/100/13


STATION/POSITION TIME  TEMP    WIND        PRES    WAVE   SWELL
                       AIR SEA DIR/SP/G            HT/PER HT/PER/DIR
                 (UTC) (F)     (DEG/KT/KT) (MB)    (FT/S) (FT/S/D)
FRYING PAN BUOY  1950   42 64  350/ 14/ 17 1022.7F   5/ 6   3/ 80/12
BUOY 41025       1950   39     340/ 21/ 25 1020.5R   8/12   5/ 40/12
CAPE LOOKOUT NC  2000   42     350/ 14/ 17 1021.6R
BUOY 41002       1950   57 72  320/ 21/ 25 1017.1R  10/ 8   5/ 10/12
BUOY 41010       1920   63 76  320/ 16/ 21 1019.4F
ST AUGUSTINE FL  2000   48     360/ 16/ 17 1024.3R

$$



USA.gov is the U.S. government's official web portal to all federal, state and local government web resources and services.